Regional Weather Roundup
Issued by NWS

Home | Current Version | Previous Version | Graphics & Text | Print | Product List | Glossary On
Versions: 1 2 3 4 5 6 7 8 9 10 11 12 13 14 15 16 17 18 19 20 21 22 23 24 25 26 27 28 29 30 31 32 33 34 35 36 37 38 39 40 41 42 43 44 45 46 47 48 49 50
000
ASUS45 KCYS 171010
RWRWY

WYOMING REGIONAL WEATHER ROUNDUP
NATIONAL WEATHER SERVICE CHEYENNE WY
300 AM MST WED DEC 17 2014

NOTE:  "FAIR" INDICATES FEW OR NO CLOUDS BELOW 12,000 FEET
WITH NO SIGNIFICANT WEATHER AND/OR OBSTRUCTIONS TO VISIBILITY.

WYZ001-171100-
YELLOWSTONE NATIONAL PARK

CITY           SKY/WX    TMP DP  RH WIND       PRES   REMARKS
LK YELLOWSTONE   N/A     19  17  92 CALM      29.95S
W YELLOWSTONE  NOT AVBL

$$
WYZ002>013-054>058-071-098>099-171100-
NORTHERN WYOMING

CITY           SKY/WX    TMP DP  RH WIND       PRES   REMARKS
JACKSON        CLOUDY    21  21 100 CALM      29.97S
CODY           CLOUDY    19  18  93 CALM      29.90S
GREYBULL       FAIR      17  14  88 SE3       29.96F
WORLAND        FAIR       6   3  87 S8        29.95F WCI  -7
SHERIDAN       FOG       19  17  92 CALM      29.97S VSB 1/2
BUFFALO        MOCLDY    17  14  88 NW6       29.91S WCI   9
GILLETTE       FAIR      17  14  88 S16       29.94S WCI   2
HULETT           N/A    N/A N/A N/A MISG        N/A
NEWCASTLE      CLOUDY    19  19 100 S9        30.02S FOG     WCI   9

$$
WYZ014>020-022>026-101>103-171100-
CENTRAL WYOMING

CITY           SKY/WX    TMP DP  RH WIND       PRES   REMARKS
BIG PINEY      MOCLDY    19  15  84 E3        29.99S
PINEDALE       CLOUDY    21  19  93 CALM      30.00S
DUBOIS         CLOUDY    28  19  69 NW9       29.90S WCI  20
LANDER         FAIR       4   1  88 SE6       29.94S WCI  -7
RIVERTON       FOG       18  14  84 CALM      29.95S VSB 1/4
CASPER         FAIR      27  18  69 SW12      29.93F WCI  17
DOUGLAS        FAIR      11   7  84 CALM      29.96F

$$
WYZ021-027>030-104>119-171100-
SOUTHERN WYOMING

CITY           SKY/WX    TMP DP  RH WIND       PRES   REMARKS
EVANSTON       FAIR      26  18  71 CALM      29.97S
FORT BRIDGER   FAIR      24  19  80 CALM      30.01S
ROCK SPRINGS   FAIR      16  12  84 CALM      30.00S
DIXON          CLOUDY    17  15  92 CALM      30.04S
RAWLINS        FAIR      19  14  81 SE3       29.98S
SARATOGA       CLOUDY    21  18  86 S3        30.00S
LARAMIE        FAIR      20  17  88 W10       29.96F WCI   9
CHEYENNE       FAIR      30  22  72 CALM      29.95F
TORRINGTON     CLOUDY    15  13  91 CALM      30.00S FOG
PINE BLUFFS    FAIR      14  12  92 SW3       29.99F

$$


USA.gov is the U.S. government's official web portal to all federal, state and local government web resources and services.